This demonstration page uses our WeatherBlox Daily Observations layout. Learn more.

Left ArrowRight Arrow

Hourly Observations for September 28, 2022

Temp ( °F °C ) Dew Point ( °F °C ) Humidity (%) Winds ( mph kmh ) Pressure ( in mb ) Visibility ( mi km ) Precip ( " mm )
12:59 am 00:59 Mostly Clear 65 18.3 48 8.9 54 54 N 14 22 30.08 1019 10 16 0.00 0.00
1:59 am 01:59 Mostly Clear 64 17.8 48 8.9 56 56 NNW 16 26 30.10 1019 10 16 0.00 0.00
2:59 am 02:59 Mostly Clear 64 17.8 45 7.2 50 50 N 10 17 30.11 1020 10 16 0.00 0.00
3:59 am 03:59 Mostly Clear 63 17.2 44 6.7 50 50 N 15 24 30.11 1020 10 16 0.00 0.00
4:59 am 04:59 Mostly Clear 62 16.7 44 6.7 52 52 N 10 17 30.12 1020 10 16 0.00 0.00
5:59 am 05:59 Mostly Clear 62 16.7 43 6.1 50 50 NNW 14 22 30.14 1021 10 16 0.00 0.00
6:59 am 06:59 Partly Cloudy 61 16.1 44 6.7 54 54 NNW 9 15 30.15 1021 10 16 0.00 0.00
7:59 am 07:59 Sunny 62 16.7 45 7.2 53 53 NNW 9 15 30.16 1022 10 16 0.00 0.00
8:59 am 08:59 Mostly Cloudy 64 17.8 45 7.2 50 50 NNW 12 19 30.18 1022 10 16 0.00 0.00
9:59 am 09:59 Mostly Cloudy 64 17.8 44 6.7 48 48 N 10 17 30.19 1022 10 16 0.00 0.00
10:59 am 10:59 Partly Cloudy 66 18.9 44 6.7 45 45 N 10 17 30.20 1023 10 16 0.00 0.00
11:59 am 11:59 Sunny 68 20 44 6.7 42 42 N 9 15 30.20 1023 10 16 0.00 0.00
12:59 pm 12:59 Mostly Cloudy 68 20 45 7.2 43 43 NNE 10 17 30.20 1023 10 16 0.00 0.00
1:59 pm 13:59 Mostly Cloudy 69 20.6 45 7.2 42 42 NE 12 19 30.19 1022 10 16 0.00 0.00
2:59 pm 14:59 Partly Cloudy 68 20 44 6.7 42 42 NE 10 17 30.18 1022 10 16 0.00 0.00
3:59 pm 15:59 Mostly Cloudy 68 20 45 7.2 43 43 NE 7 11 30.18 1022 10 16 0.00 0.00
4:59 pm 16:59 Sunny 68 20 47 8.3 47 47 NNE 9 15 30.18 1022 10 16 0.00 0.00
5:59 pm 17:59 Mostly Cloudy 68 20 48 8.9 49 49 NNE 8 13 30.19 1022 10 16 0.00 0.00
6:59 pm 18:59 Mostly Cloudy 66 18.9 48 8.9 52 52 NNE 8 13 30.19 1023 10 16 0.00 0.00
7:59 pm 19:59 Mostly Cloudy 67 19.4 48 8.9 51 51 N 13 20 30.21 1023 10 16 0.00 0.00
8:59 pm 20:59 Mostly Cloudy 67 19.4 46 7.8 47 47 N 10 17 30.22 1024 10 16 0.00 0.00
9:59 pm 21:59 Mostly Cloudy 67 19.4 49 9.4 52 52 N 9 15 30.23 1024 10 16 0.00 0.00
10:59 pm 22:59 Mostly Cloudy 68 20 48 8.9 49 49 NNE 18 30 30.23 1024 10 16 0.00 0.00
11:59 pm 23:59 Mostly Cloudy 67 19.4 51 10.6 57 57 NE 14 22 30.23 1024 10 16 0.00 0.00

Powered by AerisWeather